Location: Newark
(45.2500°N, 7.5833°E)
Time: 14:50:05
(UTC+00:00)

Tiros 1 despin weight - Pass Details

Date: 26 January 2020
Orbit: 594 x 642 km, 48.2° (Epoch: 27 February)

Event Time Altitude Azimuth Distance (km) Brightness Sun altitude
Rises 13:17:04 0° 277° (W) 2,883 ? 22.4°
Reaches altitude 10° 13:19:24 10° 282° (WNW) 1,985 ? 22.3°
Maximum altitude 13:23:55 59° 2° (N) 724 ? 21.9°
Drops below altitude 10° 13:28:30 10° 82° (E) 2,014 ? 21.6°
Sets 13:30:52 0° 87° (E) 2,928 ? 21.4°
